Location: Newark
(37.9717°N, 99.9089°W)
Time: 21:40:30
(UTC+00:00)

N. Korean satellite - Pass Details

Date: 04 October 2021
Orbit: 450 x 495 km, 97.3° (Epoch: 23 October)

Event Time Altitude Azimuth Distance (km) Brightness Sun altitude
Rises 11:52:13 0° 12° (NNE) 2,561 10.4 -9.9°
Reaches altitude 10° 11:54:17 10° 13° (NNE) 1,682 9.5 -9.5°
Maximum altitude 11:57:54 85° 101° (E) 499 6.6 -8.8°
Drops below altitude 10° 12:01:32 10° 191° (S) 1,684 9.2 -8.1°
Sets 12:03:36 0° 192° (SSW) 2,564 10.1 -7.7°
